Total_Precipitation_Accumulation
0.00 0.01 0.02 0.08 0.25 0.10 0.00 0.00 0.00 0.00 0.00 0.00 0.00 0.00 0.00 0.01 0.08 0.26 0.05 0.00 0.00 0.00 0.01 0.02 0.03 0.03 0.04 0.03 0.03 0.04 0.08 0.09 0.07 0.06 0.06 0.05 0.04 0.04 0.04 0.03 0.03 0.02 0.04 0.07 0.11 0.18 0.22 0.26 0.31
0.00 0.01 0.03 0.12 0.17 0.02 0.00 0.00 0.00 0.00 0.00 0.00 0.00 0.00 0.00 0.00 0.00 0.01 0.00 0.00 0.00 0.00 0.01 0.01 0.02 0.04 0.06 0.05 0.05 0.06 0.09 0.11 0.09 0.07 0.07 0.04 0.04 0.04 0.05 0.04 0.03 0.02 0.03 0.05 0.08 0.12 0.18 0.25 0.31
0.00 0.00 0.04 0.12 0.04 0.00 0.00 0.00 0.00 0.00 0.00 0.00 0.00 0.00 0.00 0.00 0.00 0.00 0.00 0.01 0.00 0.00 0.01 0.03 0.04 0.06 0.10 0.09 0.09 0.10 0.11 0.12 0.10 0.08 0.07 0.05 0.05 0.04 0.04 0.04 0.04 0.04 0.04 0.04 0.06 0.09 0.15 0.22 0.24
0.00 0.01 0.04 0.03 0.00 0.00 0.00 0.00 0.00 0.00 0.00 0.00 0.00 0.00 0.00 0.00 0.00 0.00 0.00 0.00 0.00 0.00 0.02 0.06 0.07 0.10 0.15 0.16 0.17 0.20 0.18 0.16 0.12 0.09 0.06 0.07 0.06 0.03 0.02 0.04 0.08 0.05 0.02 0.03 0.05 0.09 0.15 0.19 0.23
0.00 0.01 0.03 0.02 0.01 0.00 0.00 0.00 0.00 0.00 0.00 0.00 0.00 0.00 0.00 0.00 0.00 0.00 0.01 0.01 0.00 0.01 0.03 0.06 0.08 0.12 0.20 0.21 0.18 0.27 0.29 0.27 0.17 0.10 0.07 0.07 0.04 0.02 0.02 0.06 0.08 0.07 0.04 0.02 0.02 0.05 0.09 0.13 0.18
0.00 0.03 0.07 0.05 0.01 0.00 0.01 0.01 0.01 0.01 0.00 0.00 0.00 0.00 0.00 0.00 0.01 0.00 0.01 0.01 0.00 0.02 0.03 0.04 0.07 0.13 0.21 0.24 0.28 0.39 0.42 0.36 0.21 0.10 0.11 0.09 0.07 0.02 0.02 0.05 0.05 0.08 0.08 0.03 0.02 0.02 0.04 0.06 0.09
0.00 0.05 0.11 0.04 0.02 0.02 0.02 0.01 0.02 0.01 0.00 0.00 0.00 0.00 0.01 0.01 0.00 0.00 0.00 0.00 0.00 0.01 0.03 0.05 0.06 0.09 0.17 0.27 0.34 0.45 0.51 0.45 0.28 0.13 0.13 0.11 0.07 0.03 0.02 0.02 0.03 0.03 0.03 0.02 0.02 0.01 0.01 0.01 0.02
0.00 0.03 0.07 0.07 0.06 0.11 0.04 0.02 0.01 0.01 0.01 0.01 0.01 0.03 0.08 0.05 0.02 0.01 0.01 0.01 0.00 0.00 0.01 0.04 0.06 0.11 0.21 0.31 0.42 0.48 0.60 0.69 0.48 0.24 0.14 0.10 0.07 0.04 0.02 0.02 0.02 0.01 0.01 0.01 0.01 0.01 0.01 0.01 0.01
0.00 0.04 0.16 0.19 0.08 0.07 0.03 0.02 0.03 0.03 0.02 0.02 0.02 0.05 0.07 0.05 0.05 0.06 0.06 0.05 0.04 0.02 0.01 0.02 0.04 0.09 0.15 0.25 0.32 0.47 0.61 0.75 0.57 0.29 0.17 0.10 0.10 0.14 0.11 0.06 0.03 0.02 0.02 0.00 0.00 0.00 0.00 0.00 0.01
0.00 0.06 0.14 0.11 0.05 0.05 0.04 0.04 0.06 0.06 0.05 0.05 0.06 0.09 0.08 0.09 0.13 0.17 0.19 0.19 0.15 0.11 0.05 0.04 0.04 0.06 0.10 0.14 0.26 0.46 0.57 0.73 0.57 0.48 0.43 0.30 0.36 0.36 0.20 0.16 0.08 0.03 0.01 0.00 0.00 0.00 0.00 0.00 0.00
0.01 0.05 0.07 0.06 0.05 0.04 0.04 0.05 0.07 0.07 0.07 0.07 0.08 0.12 0.14 0.15 0.18 0.22 0.26 0.26 0.24 0.21 0.16 0.12 0.10 0.10 0.13 0.23 0.34 0.46 0.60 0.72 0.83 0.90 0.75 0.64 0.56 0.40 0.17 0.13 0.10 0.03 0.01 0.01 0.00 0.00 0.00 0.00 0.00
0.02 0.03 0.03 0.04 0.04 0.04 0.05 0.06 0.07 0.07 0.07 0.08 0.09 0.15 0.22 0.27 0.27 0.27 0.32 0.38 0.40 0.37 0.35 0.28 0.17 0.17 0.20 0.27 0.40 0.55 0.57 0.67 0.76 0.74 0.52 0.60 0.60 0.40 0.22 0.19 0.15 0.05 0.02 0.01 0.01 0.00 0.00 0.00 0.00
0.04 0.06 0.06 0.05 0.05 0.07 0.08 0.08 0.07 0.09 0.11 0.10 0.13 0.20 0.29 0.34 0.33 0.29 0.30 0.35 0.42 0.51 0.58 0.55 0.39 0.32 0.32 0.34 0.35 0.39 0.40 0.50 0.75 0.78 0.47 0.45 0.46 0.42 0.33 0.16 0.13 0.07 0.04 0.03 0.01 0.01 0.00 0.00 0.00
0.05 0.07 0.07 0.04 0.06 0.07 0.10 0.10 0.08 0.10 0.13 0.12 0.14 0.21 0.28 0.36 0.39 0.38 0.35 0.33 0.32 0.36 0.48 0.57 0.54 0.53 0.49 0.41 0.34 0.31 0.34 0.44 0.52 0.45 0.31 0.34 0.36 0.39 0.41 0.24 0.13 0.07 0.04 0.03 0.01 0.00 0.00 0.00 0.00
0.01 0.02 0.03 0.02 0.04 0.06 0.10 0.10 0.06 0.08 0.12 0.11 0.10 0.14 0.18 0.25 0.31 0.35 0.32 0.26 0.25 0.26 0.32 0.42 0.50 0.56 0.58 0.59 0.56 0.45 0.42 0.45 0.41 0.35 0.30 0.30 0.30 0.36 0.41 0.30 0.18 0.09 0.06 0.03 0.02 0.00 0.00 0.00 0.00
0.00 0.01 0.05 0.03 0.05 0.08 0.12 0.10 0.07 0.10 0.09 0.08 0.07 0.08 0.11 0.12 0.15 0.22 0.27 0.27 0.25 0.25 0.25 0.31 0.36 0.43 0.52 0.61 0.68 0.65 0.59 0.51 0.44 0.37 0.31 0.28 0.27 0.31 0.40 0.34 0.22 0.15 0.14 0.11 0.05 0.01 0.00 0.00 0.00
0.01 0.03 0.08 0.06 0.07 0.08 0.08 0.08 0.08 0.07 0.05 0.03 0.03 0.03 0.05 0.07 0.09 0.11 0.15 0.20 0.24 0.24 0.23 0.24 0.28 0.32 0.40 0.50 0.57 0.57 0.55 0.50 0.47 0.44 0.31 0.26 0.25 0.31 0.42 0.47 0.39 0.33 0.28 0.24 0.14 0.05 0.02 0.01 0.02
0.02 0.02 0.03 0.04 0.04 0.05 0.06 0.07 0.06 0.04 0.02 0.01 0.01 0.02 0.02 0.01 0.03 0.06 0.09 0.15 0.23 0.24 0.24 0.24 0.26 0.27 0.30 0.35 0.42 0.46 0.42 0.40 0.44 0.41 0.37 0.39 0.44 0.48 0.60 0.71 0.70 0.64 0.53 0.45 0.36 0.25 0.12 0.04 0.02
0.02 0.00 0.00 0.01 0.01 0.01 0.01 0.02 0.02 0.01 0.01 0.00 0.00 0.01 0.01 0.01 0.01 0.01 0.02 0.06 0.13 0.18 0.17 0.19 0.24 0.26 0.24 0.23 0.28 0.32 0.31 0.38 0.46 0.52 0.56 0.59 0.62 0.66 0.81 0.95 1.08 1.06 0.84 0.73 0.68 0.60 0.49 0.25 0.07
0.01 0.01 0.00 0.01 0.01 0.01 0.01 0.01 0.01 0.01 0.01 0.00 0.01 0.01 0.01 0.01 0.01 0.01 0.01 0.01 0.02 0.05 0.09 0.13 0.15 0.17 0.16 0.17 0.23 0.31 0.37 0.41 0.52 0.66 0.75 0.76 0.75 0.78 0.82 0.96 1.07 1.05 0.98 0.93 0.85 0.81 0.81 0.56 0.24
0.00 0.00 0.00 0.00 0.00 0.01 0.01 0.01 0.02 0.02 0.02 0.01 0.02 0.02 0.02 0.02 0.02 0.02 0.02 0.01 0.01 0.02 0.03 0.06 0.11 0.14 0.14 0.21 0.40 0.67 0.91 0.97 0.97 0.97 1.10 1.18 1.13 1.04 1.01 1.02 1.13 1.15 1.16 1.06 0.97 0.89 0.91 0.79 0.52
0.00 0.00 0.00 0.00 0.00 0.00 0.00 0.01 0.02 0.04 0.05 0.06 0.06 0.07 0.07 0.08 0.06 0.04 0.03 0.03 0.02 0.03 0.03 0.04 0.09 0.14 0.18 0.34 0.67 1.06 1.37 1.45 1.44 1.55 1.56 1.60 1.52 1.36 1.32 1.30 1.36 1.28 1.17 1.05 0.97 0.87 0.87 0.96 0.82
0.00 0.00 0.00 0.00 0.01 0.00 0.00 0.01 0.03 0.07 0.12 0.16 0.16 0.17 0.18 0.15 0.11 0.08 0.07 0.06 0.08 0.10 0.11 0.13 0.20 0.33 0.50 0.65 0.82 1.11 1.29 1.39 1.51 1.66 1.78 1.88 1.98 1.94 1.85 1.75 1.55 1.33 1.20 1.12 1.09 1.01 0.94 0.94 0.89
0.00 0.00 0.00 0.00 0.00 0.00 0.00 0.02 0.08 0.16 0.20 0.24 0.24 0.25 0.24 0.19 0.13 0.10 0.10 0.11 0.16 0.24 0.26 0.30 0.40 0.50 0.58 0.69 0.82 0.96 1.04 1.20 1.37 1.52 1.66 1.79 1.89 1.88 1.81 1.67 1.42 1.20 1.09 1.08 1.11 1.07 1.00 0.94 0.89
0.00 0.00 0.00 0.01 0.02 0.02 0.02 0.06 0.16 0.17 0.17 0.20 0.21 0.18 0.15 0.15 0.15 0.14 0.13 0.19 0.24 0.33 0.37 0.44 0.52 0.62 0.65 0.72 0.81 0.88 0.94 1.06 1.22 1.27 1.29 1.29 1.27 1.27 1.26 1.21 1.16 1.09 1.03 1.05 1.13 1.14 1.09 1.01 0.92
0.00 0.00 0.01 0.02 0.03 0.04 0.04 0.13 0.24 0.16 0.10 0.08 0.10 0.11 0.12 0.17 0.21 0.20 0.20 0.27 0.33 0.41 0.51 0.60 0.67 0.69 0.71 0.79 0.88 0.89 0.95 1.05 1.13 1.05 0.98 0.98 0.97 1.00 0.96 1.01 1.00 0.96 0.96 0.95 0.97 1.02 1.05 1.00 0.90
0.00 0.00 0.01 0.03 0.02 0.02 0.05 0.15 0.15 0.07 0.05 0.05 0.09 0.15 0.20 0.27 0.30 0.31 0.33 0.38 0.41 0.49 0.60 0.68 0.73 0.75 0.82 0.85 0.93 1.08 1.08 1.04 1.00 0.86 0.77 0.76 0.71 0.66 0.71 0.83 0.90 0.86 0.84 0.85 0.88 0.96 0.96 0.89 0.84
0.00 0.01 0.02 0.03 0.04 0.07 0.11 0.15 0.13 0.08 0.10 0.12 0.17 0.24 0.35 0.44 0.45 0.47 0.52 0.56 0.56 0.57 0.65 0.73 0.80 0.87 0.89 0.91 1.02 1.19 1.13 0.89 0.72 0.62 0.60 0.61 0.63 0.62 0.65 0.65 0.63 0.60 0.63 0.65 0.71 0.81 0.84 0.79 0.73
0.05 0.03 0.02 0.02 0.03 0.14 0.29 0.42 0.46 0.45 0.38 0.42 0.42 0.49 0.63 0.68 0.69 0.69 0.70 0.72 0.66 0.67 0.73 0.78 0.83 0.93 0.97 0.93 1.02 1.06 0.85 0.60 0.48 0.46 0.41 0.38 0.39 0.41 0.47 0.44 0.42 0.46 0.49 0.46 0.50 0.55 0.61 0.66 0.65
0.07 0.06 0.03 0.05 0.07 0.16 0.33 0.54 0.64 0.70 0.68 0.79 0.85 0.96 0.89 0.83 0.83 0.77 0.70 0.68 0.57 0.57 0.67 0.75 0.84 0.89 0.84 0.80 0.78 0.65 0.47 0.37 0.34 0.30 0.24 0.20 0.20 0.20 0.26 0.28 0.28 0.35 0.45 0.46 0.48 0.49 0.47 0.49 0.50